Weather in Bulanash

Russia / Sverdlovsk Oblast     57°16′36″N   61°59′26″E
temp.,
°C
wind,
m/s
gust,
m/s
humid.,
%
clouds,
%
prec.,
mm/h
press.,
hPa
HPBL,
m
18 october, mon
mon1823:00+5sw3116710 0.0 1018352
02:00+4sw397335 0.0 1017202
05:00+3sw387296 0.0 1017168
08:00+5ssw41271100 0.0 1016339
11:00+6ssw31191100 1.4 1015578
14:00+8sw51183100 0.7 10141154
17:00+8sw2380100 1.1 101382
20:00+9sw41072100 0.0 1013656
19 october, tue
tue1923:00+8sw31175100 0.0 1012642
02:00+9sw4117392 0.0 1011730
05:00+8s3979100 0.0 1010294
08:00+7s31171100 0.0 1009298
11:00+10sw41153100 0.0 10081145
14:00+12sw51452100 0.0 10081707
17:00+8wsw3875100 0.1 1008791
20:00+7wsw2679100 0.0 1009444
20 october, wed
wed2023:00+6wnw2386100 0.0 100963
02:00+5nw2388100 0.0 1009121
05:00+4n2583100 0.0 1009227
08:00+3nne2579100 0.0 1010244
11:00+4n3468100 0.0 1010517
14:00+4ne2469100 0.0 1009561
17:00+4ne3671100 0.0 1008593
20:00+2nne4895100 0.2 1008407
21 october, thu
thu2123:00+1n4997100 1.9 1007339
02:00+1n41196100 2.3 1006408
05:00+1n51296100 3.0 1006473
08:000n51297100 0.9 1006540
11:00+1n5118996 1.3 1007646
14:00+3n577156 0.1 1007857
17:00+2nnw37749 0.1 1008276
20:00−2nw269034 0.0 1009113
22 october, fri
fri2223:00−3w2391100 0.0 100857
02:00−2wsw2784100 0.0 1007185
05:00−1sw31083100 0.0 1004425
08:00−1ssw41195100 0.2 1002470
11:000ssw51296100 1.3 999615
14:000ssw51397100 2.9 996548
17:00+2ssw41495100 5.1 993659
20:00+6wsw61791100 0.4 9931213